Custer, SD

9:14 PM MST on November 22, 2017 (GMT -0700)
Custer County

Weather History for KCUT - October, 2011

Change the Weather History Date:

Thursday, October 27, 2011

  Actual Average Record
Temperature  
Mean Temperature 32 °F 39 °F  
Max Temperature 46 °F 51 °F 72 °F (1943)
Min Temperature 18 °F 28 °F 5 °F (1954)
Degree Days  
Heating Degree Days 33 26  
Month to date heating degree days 511 588  
Since 1 July heating degree days 863 1074  
Cooling Degree Days 0 0  
Month to date cooling degree days 0 0  
Year to date cooling degree days 267 177  
Moisture  
Dew Point 13 °F    
Average Humidity 52    
Maximum Humidity 77    
Minimum Humidity 27    
Precipitation  
Precipitation 0.00 in 0.03 in 0.22 in (1946)
Month to date precipitation 0.36 1.39  
Year to date precipitation 20.02 17.88  
Sea Level Pressure  
Sea Level Pressure 30.13 in    
Wind  
Wind Speed 5 mph (WNW)    
Max Wind Speed 20 mph    
Max Gust Speed 26 mph    
Visibility 10 miles    
Events      
T = Trace of Precipitation, MM = Missing Value Source: NWS Daily Summary

Daily Weather History Graph

Daily Weather History Graph

Search for Another Location

Airport or City:

Trip Planner

Search our weather history database for the weather conditions in past years. The results will help you decide how hot, cold, wet, or windy it might be!

Date:

Astronomy

Oct. 27, 2011 Rise Set
Actual Time 7:23 AM MDT 5:52 PM MDT
Civil Twilight 6:54 AM MDT 6:21 PM MDT
Nautical Twilight 6:20 AM MDT 6:55 PM MDT
Astronomical Twilight 5:47 AM MDT 7:28 PM MDT
Moon 8:33 AM MDT (10/27) 6:18 PM MDT (10/27)
Length of Visible Light 11h 27m
Length of Day
10h 28m
New Moon, 1% of the Moon is Illuminated
Oct 27
New Moon
Nov 2
First Quarter
Nov 10
Full
Nov 18
Last Quarter
Nov 24
New

Hourly Weather History & Observations

Time (MDT) Temp. Windchill Dew Point Humidity Pressure Visibility Wind Dir Wind Speed Gust Speed Precip Events Conditions
12:53 AM 21.9 °F 13.4 °F 16.0 °F 78% 30.15 in 10.0 mi West 6.9 mph - N/A   Clear
1:53 AM 21.9 °F 14.5 °F 16.0 °F 78% 30.17 in 10.0 mi WSW 5.8 mph - N/A   Clear
2:53 AM 21.9 °F 14.5 °F 15.1 °F 75% 30.16 in 10.0 mi WSW 5.8 mph - N/A   Clear
3:53 AM 21.0 °F 14.6 °F 14.0 °F 74% 30.14 in 10.0 mi West 4.6 mph - N/A   Clear
4:53 AM 19.9 °F 10.1 °F 12.9 °F 74% 30.12 in 10.0 mi West 8.1 mph - N/A   Clear
5:53 AM 21.0 °F - 12.0 °F 68% 30.13 in 10.0 mi Calm Calm - N/A   Clear
6:53 AM 19.9 °F - 10.9 °F 68% 30.12 in 10.0 mi Calm Calm - N/A   Clear
7:53 AM 27.0 °F 19.5 °F 10.9 °F 51% 30.12 in 10.0 mi WNW 6.9 mph - N/A   Scattered Clouds
8:53 AM 33.1 °F 27.7 °F 6.1 °F 32% 30.11 in 10.0 mi WNW 5.8 mph - N/A   Overcast
9:53 AM 35.1 °F - 9.0 °F 34% 30.12 in 10.0 mi Calm Calm - N/A   Mostly Cloudy
10:53 AM 36.0 °F 31.1 °F 9.0 °F 33% 30.10 in 10.0 mi Variable 5.8 mph - N/A   Clear
11:53 AM 42.1 °F 36.1 °F 16.0 °F 35% 30.07 in 10.0 mi NNW 10.4 mph 23.0 mph N/A   Clear
12:53 PM 44.1 °F 39.0 °F 15.1 °F 31% 30.06 in 10.0 mi NW 9.2 mph 19.6 mph N/A   Clear
1:53 PM 46.0 °F 40.6 °F 15.1 °F 29% 30.03 in 10.0 mi West 11.5 mph 19.6 mph N/A   Mostly Cloudy
2:53 PM 45.0 °F 38.5 °F 12.0 °F 26% 30.05 in 10.0 mi WNW 13.8 mph 24.2 mph N/A   Partly Cloudy
3:53 PM 41.0 °F 35.8 °F 12.9 °F 32% 30.09 in 10.0 mi West 8.1 mph - N/A   Scattered Clouds
4:53 PM 41.0 °F 37.1 °F 12.9 °F 32% 30.10 in 10.0 mi WNW 5.8 mph 16.1 mph N/A   Overcast
5:53 PM 39.9 °F - 14.0 °F 35% 30.12 in 10.0 mi Calm Calm - N/A   Overcast
6:53 PM 36.0 °F 32.1 °F 14.0 °F 41% 30.17 in 10.0 mi WNW 4.6 mph - N/A   Mostly Cloudy
7:53 PM 34.0 °F - 14.0 °F 44% 30.16 in 10.0 mi Calm Calm - N/A   Overcast
8:53 PM 30.9 °F 27.5 °F 14.0 °F 50% 30.16 in 10.0 mi ENE 3.5 mph - N/A   Overcast
9:53 PM 28.0 °F 22.8 °F 15.1 °F 58% 30.18 in 10.0 mi NW 4.6 mph - N/A   Overcast
10:53 PM 28.0 °F 22.8 °F 14.0 °F 56% 30.19 in 10.0 mi NW 4.6 mph - N/A   Clear
11:53 PM 26.1 °F 21.9 °F 15.1 °F 63% 30.18 in 10.0 mi WNW 3.5 mph - N/A   Overcast